User: anonymous   Login
Location: Sungai Liu
(2.3667°N, 113.8667°E)
Time: 15:53:40
(UTC+00:00)
Language:

Cosmos 407 Rocket - Orbit

View from above orbital plane
View from above orbital plane
View from above satellite
View from above satellite

Ground track
Ground track

The orbit data is extracted from the following two-line orbital elements,

1 05175U 71035B   22228.45626806  .00000108  00000-0  43964-4 0  9996
2 05175  74.0506 337.8714 0028916  78.5869 281.8531 14.38149134685807
Epoch (UTC): 16 August 2022 10:57:01
Eccentricity: 0.0028916
inclination: 74.0506°
perigee height: 744 km
apogee height: 785 km
right ascension of ascending node: 337.8714°
argument of perigee: 78.5869°
revolutions per day: 14.38149134
mean anomaly at epoch: 281.8531°
orbit number at epoch: 68580

The dashed part of the orbit path shows where the satellite is in the earth's shadow,  

DLR